This demonstration page uses our WeatherBlox Daily Observations layout. Learn more.

40.92945, -100.16068

Hourly Observations for June 27, 2017

Temp ( °F °C ) Dew Point ( °F °C ) Humidity (%) Winds ( mph kmh ) Pressure ( in mb ) Visibility ( mi km ) Precip ( " mm )
12:15 am 00:15 Clear 61 16 51 10.8 71 71 E 9 15 30.06 1018 10 16.0934 0 0
12:35 am 00:35 Clear 61 16 51 10.7 71 71 SE 8 13 30.09 1019 10 16.0934 0 0
12:55 am 00:55 Partly Cloudy 59 14.9 52 11.1 78 78 ESE 7 11 30.09 1019 10 16.0934 0 0
1:15 am 01:15 Clear 60 15.3 54 12 81 81 SE 8 13 30.09 1019 10 16.0934 0 0
1:35 am 01:35 Clear 60 15.3 55 12.9 86 86 SE 7 11 30.06 1018 10 16.0934 0 0
1:55 am 01:55 Clear 60 15.5 56 13.5 88 88 SE 7 11 30.06 1018 10 16.0934 0 0
2:15 am 02:15 Clear 60 15.3 57 13.7 90 90 SE 7 11 30.06 1018 10 16.0934 0 0
2:35 am 02:35 Clear 59 15.2 57 13.7 91 91 SE 7 11 30.06 1018 7 11.26538 0 0
2:55 am 02:55 Clear 60 15.3 57 13.8 91 91 SE 9 15 30.06 1018 10 16.0934 0 0
3:15 am 03:15 Clear 59 15.1 56 13.6 91 91 SE 9 15 30.03 1017 10 16.0934 0 0
3:35 am 03:35 Clear 59 15 56 13.6 91 91 SE 8 13 30.03 1017 7 11.26538 0 0
3:55 am 03:55 Clear 59 14.8 56 13.6 93 93 SE 7 11 30.03 1017 7 11.26538 0 0
4:15 am 04:15 Partly Cloudy 59 15 57 13.8 93 93 SE 9 15 30.03 1017 7 11.26538 0 0
4:35 am 04:35 Partly Cloudy with Mist and Fog 59 14.8 57 13.7 93 93 SE 8 13 30.03 1017 5 8.0467 0 0
4:55 am 04:55 Partly Cloudy 59 15 57 13.9 93 93 SE 9 15 30 1016 7 11.26538 0 0
5:15 am 05:15 Clear 59 15 57 13.8 93 93 SE 10 17 30 1016 7 11.26538 0 0
5:35 am 05:35 Partly Cloudy 59 14.8 56 13.6 93 93 SE 8 13 30 1016 7 11.26538 0 0
5:55 am 05:55 Partly Cloudy 59 14.8 56 13.6 93 93 SE 8 13 30 1016 7 11.26538 0 0
6:15 am 06:15 Sunny 59 14.8 56 13.5 92 92 SE 9 15 30 1016 7 11.26538 0 0
6:35 am 06:35 Sunny 58 14.7 56 13.3 91 91 SE 10 17 30 1016 7 11.26538 0 0
6:55 am 06:55 Sunny 59 14.9 56 13.5 91 91 SE 10 17 30 1016 7 11.26538 0 0
7:15 am 07:15 Sunny 59 15 56 13.5 91 91 SE 8 13 30 1016 7 11.26538 0 0
7:35 am 07:35 Sunny 60 15.6 57 13.7 89 89 SE 9 15 30 1016 10 16.0934 0 0
7:55 am 07:55 Sunny 61 16.2 57 13.7 85 85 SE 12 19 30 1016 10 16.0934 0 0
8:15 am 08:15 Sunny 63 17 57 14 83 83 SE 14 22 29.97 1015 10 16.0934 0 0
8:35 am 08:35 Sunny 64 17.8 57 14 79 79 SE 10 17 29.94 1014 10 16.0934 0 0
8:55 am 08:55 Sunny 65 18.5 57 14 75 75 SSE 16 26 29.94 1014 10 16.0934 0 0
9:15 am 09:15 Partly Cloudy 67 19.5 57 14 71 71 SSE 18 30 29.94 1014 10 16.0934 0 0
9:35 am 09:35 Sunny 68 20.1 57 14.1 69 69 SSE 21 33 29.91 1013 10 16.0934 0 0
9:55 am 09:55 Partly Cloudy 70 21 58 14.7 67 67 SE 17 28 29.88 1012 10 16.0934 0 0
10:15 am 10:15 Partly Cloudy 71 21.4 59 14.8 66 66 SSE 21 33 29.88 1012 10 16.0934 0 0
10:35 am 10:35 Partly Cloudy 72 22.4 59 15.2 64 64 SSE 18 30 29.88 1012 10 16.0934 0 0
10:55 am 10:55 Partly Cloudy 74 23.1 60 15.6 63 63 SSE 18 30 29.83 1010 10 16.0934 0 0
11:15 am 11:15 Sunny 75 24.1 61 16 61 61 SE 21 33 29.83 1010 10 16.0934 0 0
11:35 am 11:35 Partly Cloudy 75 23.8 61 16.2 63 63 SSE 20 31 29.8 1009 10 16.0934 0 0
11:55 am 11:55 Mostly Cloudy 75 24 62 16.6 63 63 SSE 21 33 29.8 1009 10 16.0934 0 0
12:15 pm 12:15 Mostly Cloudy 75 24.1 62 16.7 63 63 SSE 16 26 29.8 1009 10 16.0934 0 0
12:35 pm 12:35 Cloudy 76 24.6 63 17.1 63 63 S 20 31 29.8 1009 10 16.0934 0 0
12:55 pm 12:55 Cloudy 75 24 63 17.1 65 65 SSE 18 30 29.8 1009 10 16.0934 0 0
1:15 pm 13:15 Cloudy 75 23.8 63 17.1 66 66 S 17 28 29.8 1009 10 16.0934 0 0
1:35 pm 13:35 Cloudy 76 24.5 63 17.3 64 64 S 21 33 29.77 1008 10 16.0934 0 0
1:55 pm 13:55 Cloudy 76 24.6 64 17.6 65 65 S 17 28 29.77 1008 10 16.0934 0 0
2:15 pm 14:15 Cloudy 78 25.5 64 17.6 62 62 SSE 17 28 29.71 1006 10 16.0934 0 0
2:35 pm 14:35 Cloudy 80 26.5 64 17.7 59 59 SSE 23 37 29.71 1006 10 16.0934 0 0
2:55 pm 14:55 Mostly Cloudy 80 26.5 64 17.9 59 59 SSE 20 31 29.68 1005 10 16.0934 0 0
3:15 pm 15:15 Partly Cloudy 81 27.3 65 18.1 57 57 SSE 18 30 29.65 1004 10 16.0934 0 0
3:35 pm 15:35 Sunny 84 28.7 65 18.2 53 53 SSE 21 33 29.62 1003 10 16.0934 0 0
3:55 pm 15:55 Sunny 85 29.7 65 18.4 51 51 SSE 22 35 29.59 1002 10 16.0934 0 0
4:15 pm 16:15 Sunny 88 31 63 17.1 43 43 S 21 33 29.59 1002 10 16.0934 0 0
4:35 pm 16:35 Sunny 89 31.4 64 17.5 43 43 SSE 23 37 29.59 1002 10 16.0934 0 0
4:55 pm 16:55 Sunny 87 30.5 64 18 47 47 SSE 16 26 29.56 1001 10 16.0934 0 0
5:15 pm 17:15 Sunny 87 30.6 65 18.4 48 48 SE 15 24 29.53 1000 10 16.0934 0 0
5:35 pm 17:35 Sunny 87 30.7 65 18.5 48 48 SE 15 24 29.53 1000 10 16.0934 0 0
5:55 pm 17:55 Sunny 89 31.5 64 17.7 44 44 SE 15 24 29.5 999 10 16.0934 0 0
6:15 pm 18:15 Sunny 90 32.1 62 16.5 39 39 SSE 15 24 29.5 999 10 16.0934 0 0
6:35 pm 18:35 Sunny 91 32.5 58 14.6 34 34 SSE 16 26 29.47 998 10 16.0934 0 0
6:55 pm 18:55 Sunny 91 33 58 14.5 33 33 SE 16 26 29.47 998 10 16.0934 0 0
7:35 pm 19:35 Sunny 90 32.1 55 12.6 30 30 SSE 14 22 29.47 998 10 16.0934 0 0
7:55 pm 19:55 Sunny 88 31.2 55 12.8 32 32 SSE 14 22 29.47 998 10 16.0934 0 0
8:15 pm 20:15 Sunny 87 30.3 56 13.3 35 35 SSE 14 22 29.5 999 10 16.0934 0 0
8:35 pm 20:35 Sunny 87 30.4 55 12.8 34 34 SSE 12 19 29.5 999 10 16.0934 0 0
8:55 pm 20:55 Sunny 85 29.3 56 13.6 38 38 SSE 10 17 29.5 999 10 16.0934 0 0
9:15 pm 21:15 Clear with Nearby Thunderstorms 84 29.1 57 13.8 39 39 SSE 14 22 29.5 999 10 16.0934 0 0
9:35 pm 21:35 Clear with Nearby Thunderstorms 86 29.8 55 12.7 35 35 S 17 28 29.5 999 10 16.0934 0 0
9:55 pm 21:55 Mostly Cloudy with Light Rain 75 23.8 57 13.7 53 53 NNW 41 67 29.62 1003 5 8.0467 0 0
10:15 pm 22:15 Cloudy with Heavy Thunderstorms 66 19.1 61 16.1 83 83 NW 33 54 29.71 1006 4 6.43736 0.14 3.556
10:35 pm 22:35 Cloudy with Thunderstorms 65 18.5 62 16.5 88 88 NNE 8 13 29.68 1005 1.5 2.41401 0.63 16.002
10:55 pm 22:55 Partly Cloudy 65 18.6 62 16.7 89 89 ENE 10 17 29.65 1004 10 16.0934 0.64 16.256
11:15 pm 23:15 Clear 67 19.4 63 17 86 86 ENE 8 13 29.65 1004 10 16.0934 0 0
11:35 pm 23:35 Clear 67 19.5 63 17 86 86 E 10 17 29.62 1003 10 16.0934 0 0
11:55 pm 23:55 Partly Cloudy with Nearby Thunderstorms 66 19 62 16.7 87 87 NE 7 11 29.65 1004 10 16.0934 0 0

Powered by AerisWeather